Location: USNO
(38.9242°N, 77.0663°W)
Time: 06:17:31
(UTC-04:00)

Vanguard 1 Rocket - All Passes

Search period start: 21 June 2018 00:00
Search period end: 01 July 2018 00:00
Orbit: 653 x 4224 km, 34.3° (Epoch: 20 June)

Date Brightness Start Highest point End Pass type
(mag) Time Alt. Az. Time Alt. Az. Time Alt. Az.
21 Jun - 01:37:38 10° WSW 01:43:49 14° SSW 01:51:36 10° S visible
21 Jun - 17:10:05 10° SW 17:14:00 31° SSE 17:18:32 10° E daylight
21 Jun - 19:33:33 10° WSW 19:38:24 57° S 19:46:20 10° ESE daylight
21 Jun - 21:57:30 10° W 22:03:56 41° SSW 22:15:34 10° SE visible
22 Jun - 00:23:49 10° WSW 00:31:08 20° SSW 00:41:51 10° SSE visible
22 Jun - 16:00:17 10° SSW 16:03:32 19° SSE 16:06:43 10° ESE daylight
22 Jun - 18:23:20 10° WSW 18:27:40 51° S 18:33:44 10° E daylight
22 Jun - 20:47:08 10° W 20:52:36 48° S 21:02:12 10° ESE daylight
22 Jun - 23:12:01 10° WSW 23:18:54 26° SSW 23:30:03 10° SSE visible
23 Jun - 14:51:37 10° S 14:52:52 11° SSE 14:54:03 10° SE daylight
23 Jun - 17:13:02 10° SW 17:17:08 38° SSE 17:21:50 10° E daylight
23 Jun - 19:36:52 10° W 19:41:37 53° S 19:49:13 10° ESE daylight
23 Jun - 22:01:06 10° W 22:07:09 33° SSW 22:17:26 10° SE visible
24 Jun - 00:29:24 10° SW 00:34:22 14° SSW 00:40:39 10° S visible
24 Jun - 16:02:43 10° SW 16:06:39 26° SSE 16:10:22 10° ESE daylight
24 Jun - 18:26:35 10° WSW 18:30:54 52° S 18:36:49 10° ESE daylight
24 Jun - 20:50:35 10° W 20:55:49 40° SSW 21:04:37 10° SE daylight
24 Jun - 23:16:20 10° WSW 23:22:08 19° SSW 23:30:35 10° SSE visible
25 Jun - 14:52:35 10° SSW 14:56:00 17° SSE 14:58:57 10° ESE daylight
25 Jun - 17:16:06 10° WSW 17:20:19 44° S 17:25:04 10° E daylight
25 Jun - 19:40:14 10° W 19:44:51 46° S 19:52:00 10° ESE daylight
25 Jun - 22:04:54 10° WSW 22:10:23 25° SSW 22:18:57 10° SSE visible
26 Jun - 13:43:32 10° S 13:45:05 11° SSE 13:46:31 10° SE daylight
26 Jun - 16:05:26 10° SW 16:09:49 33° SSE 16:13:50 10° E daylight
26 Jun - 18:29:51 10° WSW 18:34:08 50° S 18:39:51 10° ESE daylight
26 Jun - 20:54:08 10° WSW 20:59:03 31° SSW 21:06:49 10° SE visible
26 Jun - 23:21:54 10° SW 23:25:26 12° SSW 23:29:46 10° S visible
27 Jun - 14:54:39 10° SW 14:59:11 24° SSE 15:02:51 10° ESE daylight
27 Jun - 17:19:15 10° WSW 17:23:33 48° S 17:28:15 10° ESE daylight
27 Jun - 19:43:39 10° W 19:48:05 38° SSW 19:54:40 10° SE daylight
27 Jun - 22:09:11 10° WSW 22:13:40 17° SSW 22:19:53 10° SSE visible
28 Jun - 13:43:59 10° SSW 13:48:19 17° SSE 13:51:41 10° ESE daylight
28 Jun - 16:08:20 10° WSW 16:13:01 41° S 16:17:11 10° E daylight
28 Jun - 18:33:09 10° W 18:37:22 45° S 18:42:49 10° ESE daylight
28 Jun - 20:57:55 10° WSW 21:02:19 23° SSW 21:08:41 10° SSE visible
29 Jun - 12:34:09 10° S 12:37:07 12° SSE 12:39:38 10° SE daylight
29 Jun - 14:57:06 10° SW 15:02:24 32° SSE 15:06:25 10° ESE daylight
29 Jun - 17:22:27 10° WSW 17:26:47 49° S 17:31:25 10° ESE daylight
29 Jun - 19:47:10 10° WSW 19:51:18 29° SSW 19:57:08 10° SE daylight
29 Jun - 22:15:01 10° SW 22:16:58 11° SSW 22:19:09 10° S visible
30 Jun - 13:45:42 10° SW 13:51:34 25° SSE 13:55:42 10° ESE daylight
30 Jun - 16:11:20 10° WSW 16:16:14 47° S 16:20:27 10° E daylight
30 Jun - 18:36:31 10° W 18:40:35 37° SSW 18:45:42 10° SE daylight
30 Jun - 21:02:10 10° WSW 21:05:34 16° SSW 21:09:57 10° SSE visible
